AHY8233 UBBB-UGTB

Flight info

Callsign AHY8233
Flight time 0h 48m
Altitude 28000
Route RASAM DCT BEKIR L850 ADEKI DCT LAMUS
Aircraft A346/H-SDE2E3FGHIJ3J4J5M1RWXY/LB1D1

Departure

Time 2026-04-28 11:42
Airport Heydar Aliyev International Airport (UBBB)

Arrival

Time 2026-04-28 12:31
Airport Tbilisi International Airport (UGTB)
Time Latitude Longitude Altitude Speed Heading
2026-04-28 11:21 40.46750 50.05241 0 ft 0 kts 176°
2026-04-28 11:28 40.46755 50.05241 0 ft 2 kts 176°
2026-04-28 11:28 40.46770 50.05239 0 ft 2 kts 176°
2026-04-28 11:28 40.46780 50.05239 0 ft 2 kts 176°
2026-04-28 11:29 40.46795 50.05236 0 ft 2 kts 161°
2026-04-28 11:29 40.46808 50.05227 0 ft 2 kts 146°
2026-04-28 11:29 40.46820 50.05215 0 ft 2 kts 133°
2026-04-28 11:29 40.46829 50.05200 -1 ft 2 kts 120°
2026-04-28 11:30 40.46835 50.05182 -1 ft 2 kts 108°
2026-04-28 11:30 40.46838 50.05152 -1 ft 0 kts 88°
2026-04-28 11:34 40.46839 50.05177 -1 ft 0 kts 88°
2026-04-28 11:34 40.46840 50.05199 -1 ft 5 kts 88°
2026-04-28 11:34 40.46841 50.05268 -1 ft 9 kts 88°
2026-04-28 11:34 40.46842 50.05333 -1 ft 7 kts 88°
2026-04-28 11:35 40.46865 50.05375 0 ft 7 kts 13°
2026-04-28 11:35 40.46913 50.05381 0 ft 3 kts 18°
2026-04-28 11:35 40.46925 50.05405 0 ft 4 kts 65°
2026-04-28 11:35 40.46935 50.05459 0 ft 8 kts 82°
2026-04-28 11:36 40.46938 50.05550 0 ft 11 kts 89°
2026-04-28 11:36 40.46941 50.05661 1 ft 12 kts 88°
2026-04-28 11:36 40.46944 50.05784 2 ft 14 kts 87°
2026-04-28 11:36 40.46948 50.05917 3 ft 11 kts 89°
2026-04-28 11:37 40.46949 50.05996 5 ft 5 kts 88°
2026-04-28 11:37 40.46948 50.06054 5 ft 7 kts 100°
2026-04-28 11:37 40.46903 50.06086 5 ft 10 kts 175°
2026-04-28 11:37 40.46812 50.06089 5 ft 15 kts 179°
2026-04-28 11:38 40.46695 50.06090 5 ft 18 kts 180°
2026-04-28 11:38 40.46551 50.06092 5 ft 21 kts 179°
2026-04-28 11:38 40.46390 50.06094 3 ft 24 kts 179°
2026-04-28 11:38 40.46205 50.06098 0 ft 27 kts 179°
2026-04-28 11:39 40.46007 50.06100 -1 ft 29 kts 180°
2026-04-28 11:39 40.45844 50.06102 -1 ft 15 kts 179°
2026-04-28 11:39 40.45756 50.06102 -1 ft 8 kts 179°
2026-04-28 11:39 40.45746 50.06103 -1 ft 0 kts 179°
2026-04-28 11:40 40.45722 50.06104 -1 ft 6 kts 173°
2026-04-28 11:40 40.45670 50.06138 -1 ft 9 kts 128°
2026-04-28 11:41 40.45658 50.06237 -1 ft 12 kts 81°
2026-04-28 11:41 40.45706 50.06318 -1 ft 10 kts 19°
2026-04-28 11:41 40.45777 50.06324 -1 ft 11 kts
2026-04-28 11:41 40.45921 50.06321 -1 ft 45 kts 359°
2026-04-28 11:42 40.46490 50.06310 5 ft 113 kts 360°
2026-04-28 11:42 40.47463 50.06299 34 ft 163 kts 360°
2026-04-28 11:42 40.48621 50.06265 586 ft 169 kts 357°
2026-04-28 11:42 40.49763 50.06128 1323 ft 169 kts 352°
2026-04-28 11:43 40.50894 50.05821 2094 ft 166 kts 348°
2026-04-28 11:43 40.52002 50.05456 2735 ft 165 kts 352°
2026-04-28 11:43 40.53135 50.05198 3278 ft 171 kts 352°
2026-04-28 11:43 40.54375 50.04911 3644 ft 190 kts 352°
2026-04-28 11:44 40.55724 50.04595 4058 ft 207 kts 351°
2026-04-28 11:44 40.57187 50.04240 4534 ft 223 kts 351°
2026-04-28 11:44 40.58769 50.03841 5009 ft 241 kts 347°
2026-04-28 11:44 40.60316 50.02809 5487 ft 261 kts 320°
2026-04-28 11:45 40.61390 50.00834 6213 ft 273 kts 291°
2026-04-28 11:45 40.61677 49.98407 7045 ft 277 kts 269°
2026-04-28 11:45 40.61626 49.95886 7782 ft 276 kts 270°
2026-04-28 11:45 40.61645 49.93372 8056 ft 276 kts 271°
2026-04-28 11:46 40.61676 49.90838 8026 ft 275 kts 271°
2026-04-28 11:46 40.61703 49.88331 7988 ft 275 kts 271°
2026-04-28 11:46 40.61729 49.85833 7962 ft 275 kts 271°
2026-04-28 11:46 40.61760 49.83302 7959 ft 275 kts 271°
2026-04-28 11:47 40.61794 49.80799 7965 ft 275 kts 271°
2026-04-28 11:47 40.61829 49.78287 7978 ft 275 kts 271°
2026-04-28 11:47 40.61852 49.75761 8009 ft 278 kts 270°
2026-04-28 11:47 40.61836 49.73186 8577 ft 287 kts 269°
2026-04-28 11:48 40.61813 49.70636 9649 ft 282 kts 269°
2026-04-28 11:48 40.61790 49.68063 10511 ft 284 kts 268°
2026-04-28 11:48 40.61763 49.65433 10992 ft 299 kts 268°
2026-04-28 11:48 40.61734 49.62618 11421 ft 318 kts 268°
2026-04-28 11:49 40.61703 49.59634 11801 ft 336 kts 268°
2026-04-28 11:49 40.61671 49.56469 12152 ft 354 kts 268°
2026-04-28 11:49 40.61640 49.53186 12551 ft 371 kts 268°
2026-04-28 11:49 40.61607 49.49761 13234 ft 378 kts 268°
2026-04-28 11:50 40.61574 49.46323 13977 ft 382 kts 268°
2026-04-28 11:50 40.61538 49.42797 14768 ft 386 kts 268°
2026-04-28 11:50 40.61499 49.39273 15521 ft 389 kts 268°
2026-04-28 11:50 40.61460 49.35751 16262 ft 392 kts 268°
2026-04-28 11:51 40.61417 49.32160 16983 ft 396 kts 267°
2026-04-28 11:51 40.61373 49.28521 17695 ft 399 kts 267°
2026-04-28 11:51 40.61330 49.24850 18366 ft 403 kts 267°
2026-04-28 11:51 40.61492 49.21173 19008 ft 409 kts 276°
2026-04-28 11:52 40.62103 49.17530 19698 ft 414 kts 284°
2026-04-28 11:52 40.63130 49.13994 20350 ft 420 kts 291°
2026-04-28 11:52 40.64338 49.10487 20989 ft 423 kts 291°
2026-04-28 11:52 40.65573 49.06981 21612 ft 425 kts 292°
2026-04-28 11:53 40.66814 49.03455 22226 ft 428 kts 291°
2026-04-28 11:53 40.68057 48.99910 22836 ft 430 kts 291°
2026-04-28 11:53 40.69320 48.96287 23432 ft 433 kts 291°
2026-04-28 11:53 40.70564 48.92711 24005 ft 435 kts 291°
2026-04-28 11:54 40.71812 48.89109 24537 ft 438 kts 291°
2026-04-28 11:54 40.73076 48.85456 25062 ft 442 kts 291°
2026-04-28 11:54 40.74354 48.81748 25604 ft 444 kts 290°
2026-04-28 11:54 40.75631 48.78041 26130 ft 447 kts 290°
2026-04-28 11:55 40.76923 48.74288 26651 ft 450 kts 290°
2026-04-28 11:55 40.78206 48.70548 27140 ft 453 kts 290°
2026-04-28 11:55 40.79501 48.66778 27624 ft 456 kts 290°
2026-04-28 11:55 40.80810 48.62962 28036 ft 459 kts 290°
2026-04-28 11:56 40.83429 48.55308 28137 ft 459 kts 290°
2026-04-28 11:56 40.86045 48.47641 28145 ft 458 kts 290°
2026-04-28 11:57 40.88641 48.40008 28140 ft 458 kts 290°
2026-04-28 11:57 40.91248 48.32325 28145 ft 458 kts 289°
2026-04-28 11:58 40.93834 48.24674 28137 ft 457 kts 289°
2026-04-28 11:58 40.96419 48.17008 28133 ft 456 kts 289°
2026-04-28 11:59 40.98978 48.09392 28140 ft 457 kts 290°
2026-04-28 11:59 41.01553 48.01709 28149 ft 456 kts 289°
2026-04-28 12:00 41.04105 47.94073 28146 ft 456 kts 289°
2026-04-28 12:00 41.06366 47.86234 28151 ft 459 kts 284°
2026-04-28 12:01 41.08166 47.78124 28150 ft 460 kts 282°
2026-04-28 12:01 41.09890 47.70045 28151 ft 460 kts 282°
2026-04-28 12:02 41.11629 47.61863 28139 ft 459 kts 282°
2026-04-28 12:02 41.13340 47.53781 28144 ft 459 kts 282°
2026-04-28 12:03 41.15059 47.45642 28129 ft 459 kts 282°
2026-04-28 12:03 41.16779 47.37460 28132 ft 460 kts 282°
2026-04-28 12:04 41.18477 47.29348 28142 ft 460 kts 281°
2026-04-28 12:04 41.20185 47.21167 28149 ft 460 kts 281°
2026-04-28 12:05 41.21876 47.13026 28145 ft 461 kts 281°
2026-04-28 12:05 41.23572 47.04833 28146 ft 462 kts 282°
2026-04-28 12:06 41.25263 46.96626 28137 ft 462 kts 282°
2026-04-28 12:06 41.26953 46.88388 28122 ft 463 kts 282°
2026-04-28 12:07 41.28624 46.80206 28128 ft 464 kts 282°
2026-04-28 12:07 41.30325 46.71901 28122 ft 465 kts 282°
2026-04-28 12:08 41.32051 46.63628 28128 ft 466 kts 282°
2026-04-28 12:08 41.33762 46.55371 28128 ft 463 kts 282°
2026-04-28 12:09 41.35442 46.47222 28115 ft 459 kts 282°
2026-04-28 12:09 41.36286 46.43099 27565 ft 461 kts 282°
2026-04-28 12:09 41.37120 46.39015 26836 ft 461 kts 283°
2026-04-28 12:10 41.37961 46.34885 26240 ft 457 kts 282°
2026-04-28 12:10 41.38783 46.30851 25822 ft 450 kts 282°
2026-04-28 12:10 41.39586 46.26906 25389 ft 445 kts 283°
2026-04-28 12:10 41.40385 46.22973 24950 ft 439 kts 283°
2026-04-28 12:11 41.41176 46.19071 24501 ft 434 kts 283°
2026-04-28 12:11 41.41959 46.15194 24066 ft 430 kts 283°
2026-04-28 12:11 41.42730 46.11375 23631 ft 426 kts 283°
2026-04-28 12:11 41.43487 46.07616 23208 ft 422 kts 284°
2026-04-28 12:12 41.44239 46.03883 22784 ft 418 kts 283°
2026-04-28 12:12 41.44982 46.00190 22360 ft 415 kts 284°
2026-04-28 12:12 41.45721 45.96501 21943 ft 412 kts 284°
2026-04-28 12:12 41.46462 45.92801 21511 ft 409 kts 284°
2026-04-28 12:13 41.47183 45.89191 21098 ft 406 kts 284°
2026-04-28 12:13 41.47899 45.85592 20683 ft 403 kts 284°
2026-04-28 12:13 41.48616 45.81982 20280 ft 399 kts 284°
2026-04-28 12:13 41.49318 45.78439 19882 ft 396 kts 284°
2026-04-28 12:14 41.50013 45.74933 19489 ft 393 kts 284°
2026-04-28 12:14 41.50707 45.71421 19086 ft 391 kts 284°
2026-04-28 12:14 41.51390 45.67963 18687 ft 388 kts 284°
2026-04-28 12:14 41.52077 45.64473 18293 ft 386 kts 284°
2026-04-28 12:15 41.52755 45.61027 17890 ft 384 kts 284°
2026-04-28 12:15 41.53427 45.57613 17477 ft 382 kts 284°
2026-04-28 12:15 41.54225 45.54275 17078 ft 380 kts 291°
2026-04-28 12:15 41.55348 45.51095 16668 ft 379 kts 298°
2026-04-28 12:16 41.56613 45.48426 16302 ft 377 kts 304°
2026-04-28 12:16 41.58140 45.45619 15910 ft 375 kts 306°
2026-04-28 12:16 41.59700 45.42815 15507 ft 374 kts 306°
2026-04-28 12:16 41.61233 45.40063 15108 ft 372 kts 307°
2026-04-28 12:17 41.62775 45.37285 14697 ft 370 kts 306°
2026-04-28 12:17 41.64285 45.34558 14302 ft 368 kts 306°
2026-04-28 12:17 41.65808 45.31799 13912 ft 365 kts 306°
2026-04-28 12:17 41.67305 45.29080 13506 ft 363 kts 306°
2026-04-28 12:18 41.68791 45.26379 13113 ft 361 kts 306°
2026-04-28 12:18 41.70256 45.23710 12708 ft 360 kts 306°
2026-04-28 12:18 41.71738 45.21009 12285 ft 358 kts 306°
2026-04-28 12:18 41.73213 45.18319 11869 ft 357 kts 306°
2026-04-28 12:19 41.74667 45.15661 11453 ft 355 kts 306°
2026-04-28 12:19 41.76115 45.13012 11036 ft 354 kts 306°
2026-04-28 12:19 41.77543 45.10398 10753 ft 347 kts 306°
2026-04-28 12:19 41.78941 45.07836 10635 ft 334 kts 306°
2026-04-28 12:20 41.80285 45.05373 10519 ft 323 kts 306°
2026-04-28 12:20 41.81591 45.02977 10411 ft 311 kts 306°
2026-04-28 12:20 41.82840 45.00683 10315 ft 300 kts 306°
2026-04-28 12:20 41.84042 44.98472 10224 ft 289 kts 306°
2026-04-28 12:21 41.85208 44.96326 10136 ft 278 kts 306°
2026-04-28 12:21 41.86327 44.94264 10049 ft 272 kts 306°
2026-04-28 12:21 41.87427 44.92238 9868 ft 272 kts 306°
2026-04-28 12:21 41.88542 44.90183 9541 ft 272 kts 306°
2026-04-28 12:22 41.89666 44.88110 9230 ft 272 kts 306°
2026-04-28 12:22 41.90770 44.86069 8932 ft 272 kts 306°
2026-04-28 12:22 41.91871 44.84029 8639 ft 272 kts 306°
2026-04-28 12:22 41.92987 44.81960 8340 ft 271 kts 306°
2026-04-28 12:23 41.94049 44.79949 8210 ft 261 kts 301°
2026-04-28 12:23 41.94552 44.77658 8106 ft 255 kts 267°
2026-04-28 12:23 41.94124 44.75400 7884 ft 255 kts 238°
2026-04-28 12:23 41.92990 44.73591 7589 ft 253 kts 224°
2026-04-28 12:24 41.91747 44.71934 7287 ft 252 kts 224°
2026-04-28 12:24 41.90538 44.70300 7012 ft 244 kts 223°
2026-04-28 12:24 41.89119 44.69143 6989 ft 236 kts 188°
2026-04-28 12:24 41.87517 44.69271 6990 ft 231 kts 156°
2026-04-28 12:25 41.86183 44.70414 6814 ft 231 kts 136°
2026-04-28 12:25 41.85046 44.71950 6514 ft 229 kts 132°
2026-04-28 12:25 41.83986 44.73448 6216 ft 219 kts 132°
2026-04-28 12:25 41.82939 44.74867 5995 ft 204 kts 133°
2026-04-28 12:26 41.81961 44.76141 5852 ft 194 kts 134°
2026-04-28 12:26 41.80988 44.77382 5609 ft 193 kts 135°
2026-04-28 12:26 41.80019 44.78604 5306 ft 189 kts 135°
2026-04-28 12:26 41.79078 44.79779 5006 ft 178 kts 135°
2026-04-28 12:27 41.78201 44.80871 4732 ft 167 kts 134°
2026-04-28 12:27 41.77372 44.81910 4495 ft 164 kts 134°
2026-04-28 12:27 41.76532 44.82968 4261 ft 164 kts 134°
2026-04-28 12:27 41.75704 44.84013 4024 ft 164 kts 134°
2026-04-28 12:28 41.74881 44.85050 3785 ft 163 kts 134°
2026-04-28 12:28 41.74057 44.86090 3534 ft 163 kts 134°
2026-04-28 12:28 41.73229 44.87135 3280 ft 162 kts 134°
2026-04-28 12:28 41.72414 44.88163 3029 ft 161 kts 135°
2026-04-28 12:29 41.70809 44.90176 2523 ft 156 kts 135°
2026-04-28 12:29 41.70019 44.91184 2298 ft 154 kts 135°
2026-04-28 12:29 41.69248 44.92153 2089 ft 152 kts 135°
2026-04-28 12:30 41.68482 44.93122 1857 ft 150 kts 136°
2026-04-28 12:30 41.67730 44.94071 1625 ft 148 kts 135°
2026-04-28 12:30 41.67038 44.94955 1562 ft 116 kts 138°
2026-04-28 12:30 41.66583 44.95531 1553 ft 64 kts 136°
2026-04-28 12:31 41.66291 44.95901 1545 ft 52 kts 136°
2026-04-28 12:31 41.66029 44.96233 1538 ft 51 kts 136°
2026-04-28 12:31 41.65884 44.96418 1528 ft 9 kts 136°
2026-04-28 12:31 41.65850 44.96511 1525 ft 10 kts 89°
2026-04-28 12:32 41.65891 44.96592 1525 ft 10 kts 21°
2026-04-28 12:32 41.65943 44.96587 1529 ft 5 kts 338°
2026-04-28 12:32 41.65965 44.96569 1532 ft 2 kts 322°
2026-04-28 12:32 41.65979 44.96552 1534 ft 3 kts 316°
2026-04-28 12:33 41.66008 44.96514 1537 ft 8 kts 316°
2026-04-28 12:33 41.66063 44.96443 1540 ft 12 kts 316°
2026-04-28 12:33 41.66121 44.96370 1544 ft 9 kts 317°
2026-04-28 12:33 41.66176 44.96321 1547 ft 9 kts 339°
2026-04-28 12:34 41.66237 44.96299 1550 ft 8 kts 351°
2026-04-28 12:34 41.66295 44.96302 1553 ft 7 kts
2026-04-28 12:34 41.66343 44.96316 1556 ft 6 kts 14°
2026-04-28 12:34 41.66386 44.96331 1559 ft 5 kts 14°
2026-04-28 12:35 41.66425 44.96344 1561 ft 5 kts 14°
2026-04-28 12:35 41.66476 44.96361 1564 ft 9 kts 14°
2026-04-28 12:35 41.66539 44.96381 1568 ft 8 kts 13°
2026-04-28 12:35 41.66594 44.96399 1571 ft 7 kts 13°
2026-04-28 12:36 41.66639 44.96414 1575 ft 5 kts 14°
2026-04-28 12:36 41.66668 44.96423 1578 ft 3 kts 14°
2026-04-28 12:36 41.66697 44.96433 1579 ft 4 kts 14°
2026-04-28 12:36 41.66727 44.96444 1581 ft 4 kts 19°
2026-04-28 12:37 41.66751 44.96461 1583 ft 3 kts 36°
2026-04-28 12:37 41.66767 44.96479 1584 ft 3 kts 43°
2026-04-28 12:37 41.66783 44.96500 1586 ft 2 kts 44°
2026-04-28 12:37 41.66793 44.96512 1586 ft 0 kts 43°
2026-04-28 12:38 41.66792 44.96512 1586 ft 0 kts 43°